Regional Weather Roundup
Issued by NWS Little Rock, AR

Home | Current Version | Previous Version | Graphics & Text | Print | Product List | Glossary On
Versions: 1 2 3 4 5 6 7 8 9 10 11 12 13 14 15 16 17 18 19 20 21 22 23 24 25 26 27 28 29 30 31 32 33 34 35 36 37 38 39 40 41 42 43 44 45 46 47 48 49 50
000
ASUS44 KLZK 250805
RWRLZK

WEATHER ROUNDUP FOR ARKANSAS
NATIONAL WEATHER SERVICE LITTLE ROCK AR
300 AM CDT SUN JUN 25 2017

NOTE: "FAIR" INDICATES FEW OR NO CLOUDS BELOW 12,000 FEET WITH NO
SIGNIFICANT WEATHER AND/OR OBSTRUCTIONS TO VISIBILITY.

ARZ001-003-010-029-250900-
NORTHWEST ARKANSAS

CITY           SKY/WX    TMP DP  RH WIND       PRES   REMARKS
FAYETTEVILLE   CLOUDY    61  59  93 S3        30.26S
FORT SMITH     PTCLDY    71  63  75 CALM      30.22F
HARRISON       CLOUDY    61  53  75 W5        30.25S
BENTONVILLE    CLOUDY    66  55  68 CALM      30.26S
ROGERS         CLOUDY    65  57  75 CALM      30.26S
SILOAM SPGS    CLOUDY    64  57  77 CALM      30.26R
HIGHFILL       CLOUDY    65  57  75 CALM      30.26S
$$

ARZ004-005-016-250900-
NORTH CENTRAL ARKANSAS

CITY           SKY/WX    TMP DP  RH WIND       PRES   REMARKS
BATESVILLE     CLOUDY    64  59  82 W3        30.21S
FLIPPIN        CLOUDY    61  54  77 CALM      30.21S
MTN HOME       CLOUDY    61  55  81 CALM      30.23S
$$

ARZ040-041-250900-
WEST CENTRAL ARKANSAS

CITY           SKY/WX    TMP DP  RH WIND       PRES   REMARKS
MENA           CLOUDY    66  66 100 CALM      30.24S
MOUNT IDA      CLOUDY    67  64  90 CALM      30.20S
$$

ARZ009-017-025-026-028-250900-
NORTHEAST ARKANSAS

CITY           SKY/WX    TMP DP  RH WIND       PRES   REMARKS
JONESBORO      CLOUDY    71  57  61 N7        30.18S
WALNUT RIDGE   CLOUDY    64  55  72 N6        30.19F
BLYTHEVILLE    CLOUDY    68  65  90 CALM      30.18F
$$

ARZ022-023-033-042-044-250900-
CENTRAL ARKANSAS

CITY           SKY/WX    TMP DP  RH WIND       PRES   REMARKS
LITTLE ROCK    CLOUDY    69  61  75 CALM      30.19F
N LITTLE ROCK    N/A     69  58  68 CALM      30.19S
JACKSONVILLE   CLOUDY    67  65  94 CALM      30.19S
CONWAY           N/A     70  63  78 CALM      30.19S
SEARCY         CLOUDY    68  63  84 N5        30.21S
HOT SPRINGS    CLOUDY    70  61  73 CALM      30.21S
RUSSELLVILLE   CLOUDY    68  60  75 W3        30.21S
CLINTON        MOCLDY    63  63 100 CALM      30.22S
$$

ARZ036-250900-
EAST ARKANSAS

CITY           SKY/WX    TMP DP  RH WIND       PRES   REMARKS
WEST MEMPHIS   CLOUDY    67  66  97 W3        30.17R
$$

ARZ050-053-066-070-073-250900-
SOUTHWEST ARKANSAS

CITY           SKY/WX    TMP DP  RH WIND       PRES   REMARKS
CAMDEN         CLOUDY    68  64  88 CALM      30.18S
TEXARKANA      CLOUDY    69  67  93 NE3       30.19R
EL DORADO      CLOUDY    70  67  90 CALM      30.17F
DE QUEEN       CLOUDY    69  67  93 CALM      30.18S
$$

ARZ056-057-069-250900-
SOUTHEAST ARKANSAS

CITY           SKY/WX    TMP DP  RH WIND       PRES   REMARKS
PINE BLUFF     MOCLDY    70  66  87 CALM      30.19R
STUTTGART      CLOUDY    70  55  60 N6        30.19S
MONTICELLO     CLOUDY    70  65  84 CALM      30.17F

$$





USA.gov is the U.S. government's official web portal to all federal, state and local government web resources and services.